User: anonymous   Login
Location: Unspecified
(0.0000°N, 0.0000°E)
Time: 03:49:41
(UTC+00:00)
Language:

USA-170 - Orbit

View from above orbital plane
View from above orbital plane
View from above satellite
View from above satellite

Ground track
Ground track

The orbit data is extracted from the following two-line orbital elements,

1 27875U 03040A   18282.25621352 0.00000000  00000-0  00000-0 0    06
2 27875   4.6305  67.5754 0004025 358.1592   1.8395  1.00270000    03
Epoch (UTC): 09 October 2018 06:08:56
Eccentricity: 0.0004025
inclination: 4.6305°
perigee height: 35770 km
apogee height: 35803 km
right ascension of ascending node: 67.5754°
argument of perigee: 358.1592°
revolutions per day: 1.00270000
mean anomaly at epoch: 1.8395°
orbit number at epoch: 0

The dashed part of the orbit path shows where the satellite is in the earth's shadow,  

DLR